STARLINK-35058, 65394

Orbit data source: Space-Track

STARLINK-35058, 65394 is a payload satellite owned by SpaceX/Seattle (US) in SSO that was launched on Sat, 30 Aug 2025 UTC via an FALCON 9 launch vehicle from the Air Force Western Test Range (AFWTR). Payload-class satellites include a variety of spacecraft equipped with specific instruments for various scientific and technological missions. These include communications satellites like Starlink; space stations such as the ISS; scientific satellites like the Hubble; Earth observation satellites from companies like Planet Labs, Umbra, and HawkEye 360; GPS; miniature CubeSats for education and research; and military/defense satellites.

Loading next visibility...
Identifier
65394, 2025-191R
Orbit
SSO
Country
Flag of USUS
Related business
Manufacturer
SpaceX/Seattle
Mission
Operational Commercial Communications
Bus & Motor
STARLINK V2MO, Unknown motor
Mass
575 kg wet, ~530 kg dry
Launch date (UTC)
2025-08-30 (10 months ago)
Launch vehicle
FALCON 9
Launch site
Air Force Western Test Range (AFWTR)
Object type
Payload
Rocket body
Debris
Shape & HBR
Box + 2 Pan, 17.7 m
Radar Cross Section
36.964 m², Large (>1 m²)

Expand to show TLE details & history
Last TLE update: 16 hours ago

TLE from 16 hours ago
0 STARLINK-35058
1 65394U 25191R   26171.20443336  .00003619  00000-0  25459-3 0  9994
2 65394  97.3420  41.4582 0002222  92.1784 267.9697 15.05660471 45692
Epoch: 2026-06-20T04:54Z
TLE epoch observation values (Epoch: 2026-06-20T04:54:23.042Z)
Latitude
-0.00011°
Longitude
59.43979°
Altitude
552.607 km
Speed
7.585 km/s
True Right ascension
02h 45m 49s
True Declination
0° 00' 00"
Sunlit
Object was in daylight at epoch
Visualization orbit readout
Latitude
Unknown
Longitude
Unknown
Altitude
Unknown
Speed
Unknown
Apparent Right ascension
Unknown
Apparent Declination
Unknown
Sunlit
N/A
Visualization observer readout
Local Sidereal Time
07:21:31
Azimuth
Unknown
Elevation
Unknown
Doppler factor
Unknown
Orbital elements
Apogee altitude
548 km
Perigee altitude
544.923 km
Semi-major axis
6,924.598 km
Eccentricity
0.00022
Inclination
97.342°
RAAN
41.4582°
Arg. of periapsis
92.1784°
True anomaly
267.94425°
Mean anomaly
267.9697°
Eccentric anomaly
267.95698°
Mean motion
3.76662 °/min
Orbital period
95.58 mins
BSTAR
0.00025459
Loading maneuver chart data...
Computing Atmospheric mass density...
Loading historical data...
Loading historical data...
Loading historical data...
Loading historical data...
Loading historical data...
Loading historical data...
Loading historical data...

Documentation

Showing up to 5 results
|